Regional Weather Roundup
Issued by NWS

Home | Current Version | Previous Version | Text Only | Print | Product List | Glossary Off
Versions: 1 2 3 4 5 6 7 8 9 10 11 12 13 14 15 16 17 18 19 20 21 22 23 24 25 26 27 28 29 30 31 32 33 34 35 36 37 38 39 40 41 42 43 44 45 46 47 48 49 50

000
ASUS45 KBOI 310410
RWRID

IDAHO REGIONAL WEATHER ROUNDUP
NATIONAL WEATHER SERVICE BOISE ID
1000 PM MDT THU JUL 30 2015

NOTE: "FAIR" INDICATES FEW OR NO CLOUDS BELOW 12000 FEET
WITH NO SIGNIFICANT WEATHER AND/OR OBSTRUCTIONS TO VISIBILITY

IDZ012-014-310500-
SOUTHWEST IDAHO


CITY           SKY/WX    TMP DP  RH WIND       PRES   REMARKS
BOISE          CLEAR     84  39  20 N3        30.11S
CALDWELL       CLEAR     79  45  29 CALM      30.10R
MOUNTAIN HOME  CLEAR     79  24  13 NW6       30.12S
$$

IDZ016-017-310500-
SOUTHCENTRAL IDAHO


CITY           SKY/WX    TMP DP  RH WIND       PRES   REMARKS
BURLEY         PTCLDY    68  37  32 SW7       30.21R
JEROME         CLEAR     67  37  33 SE3       30.21R
TWIN FALLS     PTCLDY    68  32  26 S6        30.19S
$$

IDZ019>023-310500-
SOUTHEAST IDAHO


CITY           SKY/WX    TMP DP  RH WIND       PRES   REMARKS
IDAHO FALLS    CLEAR     64  47  53 S3        30.28R
POCATELLO      CLEAR     71  32  23 E9        30.24R
REXBURG        CLEAR     70  43  37 CALM      30.29R
$$

IDZ006-010-011-018-031-032-310500-
CENTRAL IDAHO MOUNTAINS


CITY           SKY/WX    TMP DP  RH WIND       PRES   REMARKS
MCCALL         CLEAR     70  40  33 N3        30.26R
HAILEY         CLEAR     63  41  45 CALM      30.30R
STANLEY          N/A     58  29  33 CALM      30.38R
SALMON         CLEAR     72  43  35 S3        30.18R
CHALLIS        CLEAR     70  36  28 NW5       30.26R
$$

IDZ002-004-006-007-026-310500-
NORTHERN IDAHO


CITY           SKY/WX    TMP DP  RH WIND       PRES   REMARKS
LEWISTON       CLEAR     88  30  12 E6        30.00S
LOWELL           N/A     69  51  52 N3        30.07R
COEUR D`ALENE  CLEAR     79  34  19 E7        30.06R
MULLAN PASS    CLEAR     67  30  25 NW5       30.36R
$$


USA.gov is the U.S. government's official web portal to all federal, state and local government web resources and services.